SCP
1 1 1 1 1 1 1 1 1 1 0 0 0 0 0 0 0 0 0 0 0 0 0 0 0 0 0 0 0 0 0 0 0 0 0 0 0 0 0 0 0 0 0
2 2 2 1 1 1 1 1 1 1 0 0 0 0 0 0 0 0 0 0 0 0 0 0 0 0 0 0 0 0 0 0 0 0 0 0 0 0 0 0 0 0 0
2 2 2 2 1 1 1 1 1 1 1 0 0 0 0 0 0 0 0 0 0 0 0 0 0 0 0 0 0 0 0 0 0 0 0 0 0 0 0 0 0 0 0
2 2 2 2 2 1 1 1 1 1 1 0 0 0 0 0 0 0 0 0 0 0 0 0 0 0 0 0 0 0 0 0 0 0 0 0 0 0 0 0 0 0 0
2 2 2 2 2 2 1 1 1 1 1 1 0 0 0 0 0 0 0 0 0 0 0 0 0 0 0 0 0 0 0 0 0 0 0 0 0 0 0 0 0 0 0
2 2 2 2 2 2 2 1 1 1 1 1 0 0 0 0 0 0 0 0 0 0 0 0 0 0 0 0 0 0 0 0 0 0 0 0 0 0 0 0 0 0 0
2 2 2 2 2 2 2 1 1 1 1 1 0 0 0 0 0 0 0 0 0 0 0 0 0 0 0 0 0 0 0 0 0 0 0 0 0 0 0 0 0 0 0
2 2 2 2 2 2 1 1 1 1 1 1 0 0 0 0 0 0 0 0 0 0 0 0 0 0 0 0 0 0 0 0 0 0 0 0 0 0 0 0 0 0 0
2 2 2 2 2 1 1 1 1 1 1 1 0 0 0 0 0 0 0 0 0 0 0 0 0 0 0 0 0 0 0 0 0 0 0 0 0 0 0 0 0 0 0
1 1 1 1 1 1 1 1 1 1 1 1 0 0 0 0 0 0 0 0 0 0 0 0 0 0 0 0 0 0 0 0 0 0 0 0 0 0 0 0 0 0 0
1 1 1 1 1 1 1 1 1 1 1 1 0 0 0 0 0 0 0 0 0 0 0 0 0 0 0 0 0 0 0 0 0 0 0 0 0 0 0 0 0 0 0
1 1 1 1 1 1 1 1 1 1 1 1 0 0 0 0 0 0 0 0 0 0 0 0 0 0 0 0 0 0 0 0 0 0 0 0 0 0 0 0 0 0 0
1 1 1 1 1 1 1 1 1 1 1 1 0 0 0 0 0 0 0 0 0 0 0 0 0 0 0 0 0 0 0 0 0 0 0 0 0 0 0 0 0 0 0
1 1 1 1 1 1 1 1 1 1 1 1 0 0 0 0 0 0 0 0 0 0 0 0 0 0 0 0 0 0 0 0 0 0 0 0 0 0 0 0 0 0 0
1 1 1 1 1 1 1 1 1 1 1 1 0 0 0 0 0 0 0 0 0 0 0 0 0 0 0 0 0 0 0 0 0 0 0 0 0 0 0 0 0 0 0
0 1 1 1 1 1 1 1 1 1 1 1 0 0 0 0 0 0 0 0 0 0 0 0 0 0 0 0 0 0 0 0 0 0 0 0 0 0 0 0 0 0 0
0 0 1 1 1 1 1 1 1 1 1 1 0 0 0 0 0 0 0 0 0 0 0 0 0 0 0 0 0 0 0 0 0 0 0 0 0 0 0 0 0 0 0
0 0 0 1 0 1 1 1 1 1 1 1 0 0 0 0 0 0 0 0 0 0 0 0 0 0 0 0 0 0 0 0 0 0 0 0 0 0 0 0 0 0 0
0 0 0 0 0 0 0 0 1 1 1 0 0 0 0 0 0 0 0 0 0 0 0 0 0 0 0 0 0 0 0 0 0 0 0 0 0 0 0 0 0 0 0
0 0 0 0 0 0 0 0 0 1 1 0 0 0 0 0 0 0 0 0 0 0 0 0 0 0 0 0 0 0 0 0 0 0 0 0 0 0 0 0 0 0 0
0 0 1 1 1 0 0 0 0 0 0 0 0 0 0 0 0 0 0 0 0 0 0 0 0 0 0 0 0 0 0 0 0 0 0 0 0 0 0 0 0 0 0
0 0 0 0 1 1 0 0 0 0 0 0 0 0 0 0 0 0 0 0 0 0 0 0 0 0 0 0 0 0 0 0 0 0 0 0 0 0 0 0 0 0 0
0 0 0 0 0 0 0 0 0 0 0 0 0 0 0 0 0 0 0 0 0 0 0 0 0 0 0 0 0 0 0 0 0 0 0 0 0 0 0 0 0 0 0
0 0 0 0 0 0 0 0 0 0 0 0 0 0 0 0 0 0 0 0 0 0 0 0 0 0 0 0 0 0 0 0 0 0 0 0 0 0 0 0 0 0 0
0 0 0 0 0 0 0 0 0 0 0 0 0 0 0 0 0 0 0 0 0 0 0 0 0 0 0 0 0 0 0 0 0 0 0 0 0 0 0 0 0 0 0
0 0 0 0 0 0 0 0 0 0 0 0 0 0 0 0 0 0 0 0 0 0 0 0 0 0 0 0 0 0 0 0 0 0 0 0 0 0 0 0 0 0 0
Wind_Speed
15 15 16 17 15 14 14 13 13 11 9 7 7 6 5 5 4 4 5 5 5 5 4 4 4 4 3 4 4 3 3 1 2 3 2 3 2 1 1 2 3 4 5
13 14 15 16 16 16 15 14 13 12 10 8 6 5 5 4 4 3 4 5 5 5 5 5 4 4 3 3 3 3 2 1 2 3 3 1 3 2 0 1 3 3 3
19 18 17 16 16 16 17 15 14 12 11 9 6 5 4 3 3 3 3 4 5 5 5 5 4 4 4 3 3 3 4 2 1 2 4 4 3 1 2 1 1 3 3
16 16 17 17 18 17 15 14 14 12 11 11 10 11 8 6 5 5 4 4 4 5 5 5 5 4 4 4 3 3 3 4 2 0 1 2 4 3 0 2 1 1 3
18 18 17 18 17 15 14 13 13 12 11 11 12 11 7 5 4 5 6 4 4 4 5 5 5 5 4 4 4 3 3 3 3 2 1 1 1 2 3 1 1 1 1
18 17 15 13 11 12 12 12 13 12 12 12 11 11 10 9 8 7 7 5 3 3 5 5 4 5 4 4 4 3 4 3 3 2 2 3 2 2 3 2 2 1 2
15 15 15 15 14 14 14 13 14 12 12 12 11 11 11 11 11 9 8 7 4 3 5 5 5 4 4 4 4 4 3 3 3 3 2 2 2 2 3 3 2 1 1
14 16 16 16 16 16 16 16 15 13 13 13 11 10 10 8 7 8 7 7 5 5 6 6 6 5 5 5 4 3 3 3 3 3 3 2 1 1 2 3 4 2 1
14 14 14 14 14 15 15 15 16 14 14 13 11 10 10 9 8 8 7 6 5 5 7 6 6 5 5 5 5 3 3 3 3 3 3 2 1 1 1 2 3 4 2
11 12 13 13 14 13 12 13 13 14 13 13 12 11 10 9 9 8 8 8 7 6 7 7 6 6 5 5 5 3 3 3 2 2 3 2 1 2 2 2 2 3 4
11 11 11 11 11 11 12 12 13 12 12 13 11 10 9 9 9 8 8 8 7 8 8 7 7 6 6 5 4 4 4 4 3 2 3 2 2 2 1 2 2 2 3
9 11 11 10 10 12 13 13 13 13 13 12 10 10 10 9 9 9 8 8 8 8 8 7 7 7 6 5 6 5 5 5 4 3 3 2 2 2 1 1 2 1 2
7 8 10 11 11 12 12 12 12 12 11 11 11 11 11 10 10 9 9 9 9 8 7 7 8 7 6 6 6 5 5 5 5 5 4 3 3 2 1 1 2 1 1
7 8 9 10 10 10 11 12 12 12 12 11 12 12 12 11 10 9 9 9 9 9 8 8 7 7 7 6 6 5 5 5 4 5 5 4 5 4 3 2 2 2 2
7 8 9 9 9 9 9 9 11 11 12 12 12 12 10 10 9 9 9 9 9 10 8 7 7 6 6 6 6 6 6 5 4 4 4 5 6 7 5 3 3 3 2
6 8 10 10 10 10 10 10 10 11 11 12 11 10 10 10 10 10 9 9 9 8 8 8 8 7 7 9 11 8 6 6 6 5 4 4 5 7 7 7 7 6 4
6 8 10 10 10 10 10 11 10 10 11 11 11 11 11 11 10 11 10 10 10 8 8 8 8 8 8 11 12 12 7 6 6 6 5 4 4 6 4 5 5 5 6
6 7 8 8 8 9 8 9 9 10 11 12 12 12 12 11 10 10 11 10 8 8 8 8 9 7 8 11 12 12 7 6 6 6 6 6 5 5 5 4 3 3 4
6 5 6 7 7 8 9 9 9 10 10 12 12 12 12 12 11 12 11 9 8 8 7 8 9 8 8 11 12 11 5 5 5 5 6 6 6 8 8 5 4 4 4
4 4 4 5 7 7 8 9 9 10 11 11 11 11 12 12 13 12 10 7 7 8 8 7 8 9 8 11 13 12 5 5 4 3 4 7 7 8 9 6 5 5 5
3 4 5 6 7 8 9 9 9 11 10 9 9 10 11 11 11 10 8 8 8 8 7 8 7 7 8 10 13 13 6 6 5 4 3 4 8 9 9 8 6 9 6
2 3 4 4 5 7 9 9 9 9 8 9 9 10 10 10 9 9 8 8 9 8 8 6 6 5 6 8 11 14 12 9 6 5 4 4 8 9 9 7 8 8 5
2 2 3 3 3 5 8 9 8 7 8 9 9 9 10 9 8 9 10 8 8 7 7 7 7 5 5 6 11 14 13 12 6 4 6 6 7 7 6 8 7 5 3
1 1 2 3 1 3 5 6 6 7 8 9 8 8 9 8 8 8 8 8 8 8 7 7 7 5 4 5 5 6 7 8 6 3 3 4 3 3 3 2 3 3 3
1 1 2 2 2 2 2 3 4 6 7 7 7 7 7 8 7 6 6 7 7 9 9 8 7 7 7 8 9 8 7 6 6 4 2 1 1 1 1 1 2 2 2
1 1 1 1 1 1 1 2 3 6 7 6 7 6 6 6 6 6 4 2 4 7 9 9 8 5 7 8 10 12 12 12 11 7 3 4 4 4 4 3 3 3 3
Wind_Direction
176 170 169 168 166 166 166 167 164 166 160 156 154 152 158 160 153 158 158 156 151 146 142 146 139 134 136 146 142 126 115 114 113 86 47 8 21 121 173 172 166 185 190
169 170 169 169 171 170 169 169 169 170 169 166 160 154 153 158 155 152 155 158 154 150 151 147 148 145 141 139 137 132 125 123 126 124 107 43 354 345 7 161 170 179 181
176 174 173 174 171 174 174 173 173 171 170 161 146 135 121 114 130 152 164 170 159 153 150 151 147 148 145 151 155 149 140 145 116 139 143 147 199 285 337 292 180 169 169
177 176 174 175 177 177 174 170 171 170 169 163 162 162 164 166 177 171 167 167 160 154 151 150 147 149 144 150 163 151 147 141 147 142 139 156 155 148 151 333 316 202 180
179 179 180 179 176 173 172 171 170 170 169 170 170 170 169 166 153 154 159 164 162 159 153 149 147 148 146 153 152 142 143 146 153 160 148 112 98 119 135 190 295 325 256
179 178 176 169 167 169 170 169 173 175 172 172 173 175 170 164 159 164 170 171 166 165 159 153 154 153 151 154 155 147 143 141 142 145 146 148 147 164 147 163 202 241 279
174 173 170 171 172 172 173 173 176 179 177 176 178 179 175 170 172 173 175 171 168 171 175 159 158 156 158 154 146 139 142 145 142 147 146 147 160 159 150 142 159 197 299
175 177 177 177 177 178 178 177 180 181 180 180 183 179 174 173 176 175 173 175 176 174 170 161 159 158 157 152 145 140 148 144 142 137 134 130 137 141 148 150 144 122 349
175 177 178 176 177 181 185 182 180 181 183 182 179 176 174 174 174 172 168 168 170 170 165 161 158 158 154 151 147 144 150 140 135 133 129 125 114 109 129 142 148 145 156
173 175 177 178 180 180 179 179 180 182 182 178 179 179 179 176 171 167 169 172 172 168 163 162 159 157 156 154 146 143 146 137 140 138 123 113 111 89 94 124 134 140 148
172 174 179 182 178 172 170 175 178 178 178 178 177 173 174 173 168 170 173 171 168 165 167 166 163 163 163 158 154 159 153 150 153 143 138 141 125 98 87 98 111 123 133
172 173 173 171 173 175 173 175 177 178 178 175 172 171 169 169 171 173 173 168 167 169 169 167 167 172 170 165 164 171 167 167 169 170 154 163 138 113 97 101 109 123 142
156 169 171 174 178 178 176 177 177 177 174 171 170 170 171 173 175 175 172 169 168 168 168 166 172 175 174 173 177 176 175 179 182 179 175 179 154 151 146 134 125 123 114
159 165 174 179 178 176 176 177 176 175 172 171 173 175 177 177 176 173 170 170 169 170 172 175 177 177 176 178 180 177 179 182 188 187 186 184 176 178 172 159 155 137 102
163 164 170 173 172 172 170 173 176 174 172 172 175 179 177 173 172 171 171 170 173 177 175 174 177 177 178 186 184 182 182 182 190 193 192 193 191 189 182 172 175 158 148
173 171 167 168 172 174 174 169 173 174 170 173 177 173 172 173 175 175 174 173 176 175 174 179 179 184 193 193 189 183 182 183 185 191 200 205 196 196 195 193 189 178 175
171 177 176 176 179 181 175 173 174 171 172 174 175 174 174 177 179 179 176 180 181 176 180 184 183 190 199 193 192 191 180 183 189 192 193 206 206 198 200 211 211 212 208
169 177 179 180 179 177 176 175 169 172 176 178 179 178 179 181 179 179 182 183 181 182 185 187 187 189 203 198 196 193 185 186 193 196 197 204 215 209 196 197 211 231 237
177 174 173 174 173 172 172 169 172 175 179 182 183 182 180 180 180 184 185 184 181 185 187 186 186 191 203 201 197 186 178 191 203 207 204 203 208 217 202 189 208 237 261
151 154 157 150 160 168 167 171 176 180 188 189 187 183 181 182 185 187 185 182 182 188 185 188 191 193 198 199 195 186 181 192 204 212 215 209 204 209 200 192 198 222 241
140 147 159 168 176 168 164 174 181 194 195 189 183 181 183 186 185 183 182 178 181 181 184 189 194 195 198 198 197 191 188 193 193 201 215 219 211 213 213 205 206 221 223
112 145 159 174 175 170 169 179 193 194 183 181 182 184 184 187 185 182 185 184 181 183 187 188 195 202 201 196 199 197 200 194 189 203 210 216 217 219 221 218 224 229 224
129 140 149 158 171 175 177 188 197 184 176 176 181 182 182 184 182 184 187 185 184 187 191 191 199 204 202 199 195 197 201 200 197 204 204 209 219 219 226 230 229 218 199
111 112 127 136 178 199 194 194 188 180 177 180 180 178 179 182 183 186 187 186 187 189 190 193 199 197 195 197 191 193 200 202 204 205 201 203 209 199 209 225 227 209 202
69 106 128 148 185 204 205 198 177 172 176 178 179 178 178 180 179 181 188 192 196 192 190 195 191 190 203 208 191 182 189 193 196 173 154 149 159 197 228 237 237 224 214
61 74 88 153 201 205 208 206 183 175 176 178 180 181 177 172 169 165 159 151 163 179 186 185 179 192 199 184 182 187 190 188 174 158 173 195 201 208 215 220 229 225 226